Regional Weather Roundup
Issued by NWS Midland/Odessa, TX

Skip options and go directly to product.
Home | Oldest Version | Previous Version | Current Version | All | Text Only | Save Text | Print | Product List | Glossary Off

Skip product version selection by date and time.   

142
ASUS44 KMAF 262210
RWRMAF
MIDLAND AREA WEATHER ROUNDUP
NATIONAL WEATHER SERVICE MIDLAND TX
500 PM CDT SUN JUN 26 2016

...IN SOUTHWEST TEXAS AND SOUTHEAST NEW MEXICO...

CITY           SKY/WX    TMP DP  RH WIND       PRES   REMARKS
ALPINE         CLOUDY    71  63  76 SE7       30.23S
ANDREWS        FAIR      85  60  43 SE15      30.12F
ARTESIA        CLOUDY    86  59  39 E14G29    30.11S
BIG SPRING     CLOUDY    75  60  60 SE18      30.14F
CARLSBAD       MOSUNNY   92  54  27 S7        30.05F
DRYDEN           N/A     87  67  51 E14       30.02F
FORT STOCKTON  MOSUNNY   89  63  41 SE12G23   30.06S
GUAD PASS      CLOUDY    84  52  33 NE16        N/A
HOBBS          MOSUNNY   86  55  35 E8G16     30.13F
MARFA          LGT RAIN N/A N/A N/A SE7       30.21R
MIDLAND AIRPK  MOSUNNY   83  67  57 E12       30.10F
MIDLAND INTL   CLOUDY    79  66  64 SE17      30.11F
ODESSA         MOSUNNY   82  66  58 SE16      30.11F
PECOS          MOSUNNY   93  61  35 E14G28    30.02S
PRESIDIO       MOCLDY   101  54  21 N7G18     29.96S
SEMINOLE       MOSUNNY   85  55  35 SE13G21   30.13F
SNYDER           N/A     82  67  60 SE17      30.14S
WINK           SUNNY     90  60  36 E10G21    30.05F
$$
...OTHER STATIONS IN TEXAS...

CITY           SKY/WX    TMP DP  RH WIND       PRES   REMARKS
ABILENE        CLOUDY    79  68  69 S12       30.10F
AMARILLO       CLOUDY    83  62  49 S12       30.17F
AUSTIN         MOSUNNY   94  67  41 SE15      30.04F
BROWNSVILLE    CLOUDY    91  76  61 SE17      30.01F HX 103
CORPUS CHRISTI PTSUNNY   92  72  51 E15       30.02F
DALLAS FTW     PTSUNNY   97  65  34 S14G23    30.02F
DEL RIO        PTSUNNY   89  71  55 E20G29    29.97F
EL PASO        PTSUNNY   86  55  34 N24G31    30.10F
HOUSTON INT    CLOUDY    91  70  49 S6        30.05F
LUBBOCK        PTSUNNY   86  61  42 S9        30.15F
SAN ANGELO     CLOUDY    79  71  76 E8        30.09F
SAN ANTONIO    CLOUDY    86  72  62 E13       30.06F
WACO           MOSUNNY   95  69  42 S12       30.04F HX 100
WICHITA FALLS  NOT AVBL
$$
...OTHER LOCATIONS IN NEW MEXICO...

CITY           SKY/WX    TMP DP  RH WIND       PRES   REMARKS
ALAMAGORDO     CLOUDY    75  63  64 CALM      30.14F
ALBUQUERQUE    CLOUDY    86  47  25 S6        30.18F THUNDER
CANNON AFB     RAIN      66  63  89 E13       30.21F
CLOVIS         CLOUDY    66  61  82 N5        30.22F
HOLLOMAN AFB   CLOUDY    78  61  55 E7        30.13F
ROSWELL        CLOUDY    92  58  31 VRB7      30.11F
RUIDOSO          N/A     72  50  46 W3        30.37S
SANTA FE       CLOUDY    83  39  21 SE16      30.28F
TRUTH OR CONSE PTSUNNY   88  49  25 SE14      30.15S
TUCUMCARI      CLOUDY    81  61  50 SE15G25   30.18F
$$

USA.gov is the U.S. government's official web portal to all federal, state and local government web resources and services.